Powrót do katalogu

STARLINK-30877

AktywnyŁącznośćVLEO
NORAD 58242·PAYLOAD·🇺🇸 United States

Wystrzelony Nov 8, 2023 z Cape Canaveral Space Force Station

Loading…

Następne Przeloty (najbliższe 24 godziny)

TLE

ŚwieżeSource: CelesTrak SupGP

Epoka: Sep 15, 2026, 02:39 UTC

1 58242C 23171N   26258.11090278  .00021748  00000+0  78787-3 0  2585
2 58242  43.0032 295.3472 0002007 265.7944 162.4171 15.27560312    18

Śledź STARLINK-30877 w czasie rzeczywistym z AllMySat

Download on the App Store